• Currently

    Reported at Minneapolis, Minneapolis-St. Paul International Airport, MN
    9:53 AM CST MON MAY 29 2017
  • 59°F15°C
  • Overcast
    Overcast
  • Feels Like:59°F15°CDew Point:48°F9°CHumidity:68% Winds:NW 15 mph G 2124 kph G 34
    Pressure:29.8 in1009 hPaVisibility:10.00 miles16090.00 meters
Time Weather Temp Dew Point
Humidity Winds Visibility Pressure Precipitation
1 hr 24 hr
Monday, May 29
23:53 23:53 Cloudy Cloudy 57°F14°C 48°F9°C 72% W 6 mphW 9 kph 10.0 miles16.1 km 29.74 in1007 hPa 0.00 in0.00 mm --
22:53 22:53 Partly Cloudy Partly Cloudy 56°F13°C 50°F10°C 81% WSW 6 mphWSW 9 kph 10.0 miles16.1 km 29.74 in1007 hPa 0.00 in0.00 mm --
21:53 21:53 Partly Cloudy Partly Cloudy 57°F14°C 48°F9°C 72% WNW 6 mphWNW 9 kph 10.0 miles16.1 km 29.74 in1007 hPa 0.00 in0.00 mm --
21:09 21:09 Mostly Cloudy Mostly Cloudy 58°F14°C 48°F9°C 70% NW 10 mphNW 17 kph 10.0 miles16.1 km 29.74 in1007 hPa 0.00 in0.00 mm --
21:02 21:02 Mostly Cloudy With Nearby Thunderstorms Mostly Cloudy With Nearby Thunderstorms 58°F14°C 48°F9°C 70% NW 13 mphNW 20 kph 10.0 miles16.1 km 29.74 in1007 hPa 0.00 in0.00 mm --
20:53 20:53 Mostly Cloudy With Thunderstorms Mostly Cloudy With Thunderstorms 59°F15°C 49°F9°C 69% NW 10 mphNW 17 kph 10.0 miles16.1 km 29.74 in1007 hPa 0.02 in12.90 mm --
20:36 20:36 Mostly Cloudy With Light Thunderstorms Mostly Cloudy With Light Thunderstorms 66°F19°C 46°F8°C 49% WNW 10 mphWNW 17 kph 10.0 miles16.1 km 29.74 in1007 hPa 0.00 in0.03 mm --
19:53 19:53 Mostly Cloudy Mostly Cloudy 66°F19°C 44°F7°C 45% W 9 mphW 15 kph 10.0 miles16.1 km 29.71 in1006 hPa 0.00 in0.00 mm --
18:53 18:53 Mostly Cloudy Mostly Cloudy 67°F19°C 42°F6°C 41% WNW 20 mphWNW 31 kph 10.0 miles16.1 km 29.74 in1007 hPa 0.00 in0.00 mm --
17:53 17:53 Mostly Cloudy Mostly Cloudy 70°F21°C 43°F6°C 38% WNW 14 mphWNW 22 kph 10.0 miles16.1 km 29.74 in1007 hPa 0.00 in0.00 mm --
16:53 16:53 Mostly Cloudy Mostly Cloudy 68°F20°C 45°F7°C 44% WNW 24 mphWNW 39 kph 10.0 miles16.1 km 29.74 in1007 hPa 0.00 in0.00 mm --
15:53 15:53 Mostly Cloudy Mostly Cloudy 73°F23°C 43°F6°C 34% WNW 17 mphWNW 28 kph 10.0 miles16.1 km 29.71 in1006 hPa 0.00 in0.00 mm --
14:53 14:53 Mostly Cloudy Mostly Cloudy 71°F22°C 45°F7°C 39% WNW 21 mphWNW 33 kph 10.0 miles16.1 km 29.71 in1006 hPa 0.00 in0.00 mm --
13:53 13:53 Cloudy Cloudy 70°F21°C 45°F7°C 41% W 15 mphW 24 kph 10.0 miles16.1 km 29.74 in1007 hPa 0.00 in0.00 mm --
12:53 12:53 Mostly Cloudy Mostly Cloudy 70°F21°C 47°F8°C 44% WNW 21 mphWNW 33 kph 10.0 miles16.1 km 29.74 in1007 hPa 0.00 in0.00 mm --
11:53 11:53 Partly Cloudy Partly Cloudy 68°F20°C 46°F8°C 45% NW 21 mphNW 33 kph 10.0 miles16.1 km 29.74 in1007 hPa 0.00 in0.00 mm --
10:53 10:53 Mostly Sunny Mostly Sunny 65°F18°C 46°F8°C 51% WNW 14 mphWNW 22 kph 10.0 miles16.1 km 29.74 in1007 hPa 0.00 in0.00 mm --
09:53 09:53 Mostly Sunny Mostly Sunny 63°F17°C 45°F7°C 52% W 17 mphW 28 kph 10.0 miles16.1 km 29.74 in1007 hPa 0.00 in0.00 mm --
08:53 08:53 Mostly Sunny Mostly Sunny 63°F17°C 45°F7°C 52% WNW 16 mphWNW 26 kph 10.0 miles16.1 km 29.74 in1007 hPa 0.00 in0.00 mm --
07:53 07:53 Mostly Sunny Mostly Sunny 61°F16°C 48°F9°C 63% WNW 12 mphWNW 19 kph 10.0 miles16.1 km 29.74 in1007 hPa 0.00 in0.00 mm --
06:53 06:53 Mostly Sunny Mostly Sunny 59°F15°C 49°F9°C 69% W 9 mphW 15 kph 10.0 miles16.1 km 29.71 in1006 hPa 0.00 in0.00 mm --
05:53 05:53 Mostly Cloudy Mostly Cloudy 58°F14°C 49°F9°C 72% WSW 7 mphWSW 11 kph 10.0 miles16.1 km 29.74 in1007 hPa 0.00 in0.00 mm --
04:53 04:53 Mostly Cloudy Mostly Cloudy 59°F15°C 49°F9°C 69% SSW 6 mphSSW 9 kph 10.0 miles16.1 km 29.74 in1007 hPa 0.00 in0.00 mm --
03:53 03:53 Mostly Cloudy Mostly Cloudy 60°F16°C 48°F9°C 65% SW 5 mphSW 7 kph 10.0 miles16.1 km 29.77 in1008 hPa 0.00 in0.00 mm --
02:53 02:53 Mostly Cloudy Mostly Cloudy 61°F16°C 48°F9°C 63% SW 7 mphSW 11 kph 10.0 miles16.1 km 29.77 in1008 hPa 0.00 in0.00 mm --
01:53 01:53 Partly Cloudy Partly Cloudy 63°F17°C 47°F8°C 56% SW 7 mphSW 11 kph 10.0 miles16.1 km 29.8 in1009 hPa 0.00 in0.00 mm --
00:53 00:53 Mostly Cloudy Mostly Cloudy 65°F18°C 46°F8°C 51% SSW 9 mphSSW 15 kph 10.0 miles16.1 km 29.8 in1009 hPa 0.00 in0.00 mm --